www.pogodaiklimat.ru

Погода и климат >> Архив погоды >> Италия >> Феррара


ПОГОДА в Ферраре

  • Прогноз погоды в Ферраре
  • Монитор погоды в Ферраре

АРХИВ ПОГОДЫ в Ферраре

Время (UTC), дата Ветер
(напр.,м/с)
 
Видим.   Явления Облачность Т
(С)
Тd
(С)
f
(%)
Тe
(С)
Тes
(С)
Комфортность P
(гПа)
Po
(гПа)
Тmin
(С)
Tmax
(С)
R
(мм)
R24
(мм)
S
(см)
08 19.04 0 н/о н/о +15.6 +10.3 71 1030.7 1029.7
09 19.04 СВ 1 н/о н/о +16.9 +9.5 62 +18 +18 1030.9 1029.9
10 19.04 0 н/о н/о +18.3 +7.9 51 1030.7 1029.7
11 19.04 0 н/о н/о +19.0 +6.7 45 1030.3 1029.3
12 19.04 0 н/о н/о +19.0 +5.4 41 1029.9 1028.9
13 19.04 0 н/о н/о +20.3 +5.1 37 1029.6 1028.6
14 19.04 0 н/о н/о +20.2 +5.0 37 1029.0 1028.0
15 19.04 0 н/о н/о +20.6 +5.7 38 1028.4 1027.4
16 19.04 0 н/о н/о +19.9 +4.3 36 1028.2 1027.2
17 19.04 0 н/о н/о +19.1 +3.2 35 1028.1 1027.1
18 19.04 0 н/о н/о +17.6 +3.4 39 1028.2 1027.2 +21.0
19 19.04 0 н/о н/о +14.9 +3.6 47 1028.6 1027.6
20 19.04 0 н/о н/о +13.1 +4.9 57 1028.8 1027.8
21 19.04 штиль 0 н/о н/о +11.8 +5.6 66 +11 +11 1028.7 1027.7
22 19.04 штиль 0 н/о н/о +10.4 +5.3 71 +10 +10 1028.9 1027.9
23 19.04 штиль 0 н/о н/о +10.0 +6.5 79 +9 +9 1029.0 1028.0
00 20.04 штиль 0 н/о н/о +9.6 +6.6 82 +9 +9 1028.8 1027.8
01 20.04 штиль 0 н/о н/о +8.9 +6.3 84 +8 +8 1028.3 1027.3
02 20.04 штиль 0 н/о н/о +7.4 +5.4 87 +7 +7 1028.2 1027.2
03 20.04 штиль 0 н/о н/о +6.7 +5.2 90 +6 +6 1028.1 1027.1
04 20.04 штиль 0 н/о н/о +6.9 +5.4 90 +6 +6 1028.0 1027.0
05 20.04 штиль 0 н/о н/о +7.3 +5.7 90 +6 +6 1028.1 1027.1
06 20.04 З 1 н/о н/о +8.7 +7.1 90 +9 +9 1028.4 1027.4 +6.5 1
07 20.04 0 н/о н/о +10.9 +8.8 87 1028.6 1027.6
08 20.04 0 н/о н/о +13.8 +10.0 78 1028.7 1027.7
09 20.04 З 1 н/о н/о +16.7 +10.0 65 +18 +18 1028.6 1027.6
10 20.04 З 1 н/о н/о +18.8 +8.7 52 +20 +20 1028.2 1027.2
11 20.04 В 2 н/о н/о +20.1 +7.1 43 +22 +22 комфорт 1027.7 1026.7
12 20.04 В 3 н/о н/о +21.1 +6.5 39 +22 +22 комфорт 1027.2 1026.2
13 20.04 В 3 н/о н/о +21.6 +5.4 35 +22 +22 комфорт 1026.4 1025.5
14 20.04 Ю 2 н/о н/о +22.0 +4.5 32 +22 +22 комфорт 1025.7 1024.8
15 20.04 В 2 н/о н/о +21.9 +2.0 27 +22 +22 комфорт 1025.2 1024.3
16 20.04 З 2 н/о н/о +21.4 +2.6 29 +21 +21 комфорт 1024.7 1023.8
17 20.04 0 н/о н/о +20.3 +2.1 30 1024.4 1023.4
18 20.04 0 н/о н/о +17.9 +2.9 37 1024.8 1023.8 +22.9
19 20.04 0 н/о н/о +15.9 +4.2 46 1024.9 1023.9
20 20.04 0 н/о н/о +14.5 +5.0 53 1025.0 1024.0
21 20.04 штиль 0 н/о н/о +13.6 +5.4 58 +13 +13 1025.0 1024.0
22 20.04 штиль 0 н/о н/о +12.5 +5.8 64 +12 +12 1024.9 1023.9
23 20.04 штиль 0 н/о н/о +12.1 +6.3 68 +12 +12 1024.7 1023.7
00 21.04 штиль 0 н/о н/о +11.1 +6.6 74 +11 +11 1024.5 1023.5
01 21.04 штиль 0 н/о н/о +9.8 +6.5 80 +9 +9 1024.2 1023.2
02 21.04 штиль 0 н/о н/о +9.9 +7.3 84 +9 +9 1024.1 1023.1
03 21.04 штиль 0 н/о н/о +8.5 +5.7 83 +8 +8 1023.6 1022.6
04 21.04 штиль 0 н/о н/о +8.0 +5.8 86 +7 +7 1023.1 1022.1
05 21.04 штиль 0 н/о н/о +7.4 +5.8 90 +6 +6 1023.0 1022.0
06 21.04 0 н/о н/о +9.6 +8.0 90 1022.9 1021.9 +7.2 1
07 21.04 0 н/о н/о +13.1 +9.9 81 1022.6 1021.6
08 21.04 0 н/о н/о +15.4 +10.5 73 1022.5 1021.5
09 21.04 СЗ 1 н/о н/о +18.7 +8.6 52 +21 +21 комфорт 1022.3 1021.3
10 21.04 ЮВ 1 н/о н/о +20.4 +6.6 41 +22 +22 комфорт 1021.8 1020.8
11 21.04 З 2 н/о н/о +21.5 +5.7 36 +22 +22 комфорт 1021.2 1020.3
12 21.04 З 3 н/о н/о +21.7 +4.7 33 +22 +22 комфорт 1020.6 1019.7
13 21.04 0 н/о н/о +21.6 +3.2 30 1020.3 1019.4
14 21.04 Ю 3 н/о н/о +21.7 +4.7 33 +22 +22 комфорт 1019.7 1018.8
15 21.04 0 н/о н/о +20.7 +3.8 33 1019.1 1018.2
16 21.04 0 н/о н/о +20.0 +2.3 31 1018.8 1017.9
17 21.04 0 н/о н/о +18.3 +4.0 39 1018.6 1017.6
18 21.04 0 н/о н/о +16.7 +5.9 49 1018.4 1017.4 +22.5
19 21.04 В 1 н/о н/о +14.8 +8.7 67 +16 +16 1018.6 1017.6
20 21.04 СВ 1 н/о н/о +13.6 +9.8 78 +15 +15 1019.0 1018.0
21 21.04 СВ 1 н/о н/о +12.9 +10.4 85 +13 +13 1018.8 1017.8
22 21.04 СВ 1 н/о н/о +12.1 +9.8 86 +12 +12 1018.6 1017.6
23 21.04 СВ 1 н/о н/о +11.4 +9.8 90 +11 +11 1018.8 1017.8
00 22.04 0 н/о н/о +11.3 +9.7 90 1018.5 1017.5
01 22.04 0 н/о н/о +11.6 +10.0 90 1018.3 1017.3
02 22.04 0 н/о н/о +11.7 +10.1 90 1017.9 1016.9
03 22.04 0 н/о н/о +11.8 +10.2 90 1017.2 1016.2
04 22.04 0 н/о н/о +11.6 +10.0 90 1016.7 1015.7
05 22.04 0 н/о н/о +11.6 +10.0 90 1016.7 1015.7
06 22.04 0 н/о н/о +12.2 +10.6 90 1016.4 1015.4 +11.2 1
07 22.04 0 н/о н/о +13.0 +11.4 90 1015.8 1014.8
08 22.04 0 н/о н/о +14.9 +13.2 90 1015.4 1014.4
09 22.04 0 н/о н/о +15.9 +12.6 81 1015.1 1014.1
10 22.04 0 н/о н/о +16.9 +11.6 71 1014.7 1013.7
11 22.04 0 н/о н/о +17.2 +11.0 67 1013.9 1012.9
12 22.04 0 н/о н/о +18.5 +11.7 65 1013.0 1012.1
13 22.04 0 н/о н/о +17.0 +11.0 68 1012.8 1011.8
14 22.04 0 н/о н/о +17.0 +11.2 69 1012.0 1011.0
15 22.04 0 н/о н/о +15.7 +11.4 76 1011.6 1010.6
16 22.04 0 н/о н/о +15.1 +11.6 80 1011.1 1010.1
17 22.04 0 н/о н/о +14.9 +12.2 84 1010.8 1009.8
18 22.04 0 н/о н/о +14.6 +12.4 87 1010.2 1009.2 +19.2
19 22.04 0 н/о н/о +13.9 +12.3 90 1010.2 1009.2
20 22.04 0 н/о н/о +13.7 +12.1 90 1010.0 1009.0
21 22.04 0 н/о н/о +13.6 +12.0 90 1009.4 1008.4
22 22.04 0 н/о н/о +13.8 +12.2 90 1009.0 1008.0
23 22.04 0 н/о н/о +13.6 +12.0 90 1008.1 1007.1
00 23.04 0 н/о н/о +13.5 +11.9 90 1007.3 1006.3 11
01 23.04 0 н/о н/о +13.5 +11.9 90 1006.9 1005.9
02 23.04 0 н/о н/о +13.4 +11.8 90 1006.1 1005.1
03 23.04 0 н/о н/о +13.2 +11.6 90 1005.1 1004.1
04 23.04 0 н/о н/о +13.2 +11.6 90 1005.1 1004.1
05 23.04 0 н/о н/о +13.3 +11.7 90 1004.9 1003.9
06 23.04 0 н/о н/о +13.4 +11.8 90 1005.0 1004.0 +13.1 14 1
07 23.04 0 н/о н/о +14.0 +12.4 90 1004.8 1003.8
08 23.04 0 н/о н/о +13.9 +12.3 90 1005.0 1004.0
09 23.04 0 н/о н/о +13.8 +12.2 90 1005.2 1004.2
10 23.04 0 н/о н/о +14.2 +12.6 90 1005.2 1004.2
11 23.04 0 н/о н/о +14.5 +12.8 90 1005.5 1004.5
12 23.04 0 н/о н/о +14.8 +13.1 90 1005.5 1004.5 2
13 23.04 0 н/о н/о +14.7 +13.0 90 1005.8 1004.8
14 23.04 0 н/о н/о +14.6 +12.9 90 1005.7 1004.7
15 23.04 0 н/о н/о +15.2 +13.5 90 1005.9 1004.9
16 23.04 0 н/о н/о +15.1 +13.4 90 1005.9 1004.9
17 23.04 0 н/о н/о +14.8 +13.1 90 1006.4 1005.4
18 23.04 0 н/о н/о +14.3 +12.7 90 1006.8 1005.8 +15.4 7
19 23.04 0 н/о н/о +14.1 +12.5 90 1007.5 1006.5
20 23.04 0 н/о н/о +14.1 +12.5 90 1008.2 1007.2
21 23.04 0 н/о н/о +13.9 +12.3 90 1008.6 1007.6
22 23.04 0 н/о н/о +13.4 +11.8 90 1008.9 1007.9
23 23.04 0 н/о н/о +13.1 +11.5 90 1009.2 1008.2
00 24.04 0 н/о н/о +13.0 +11.4 90 1009.5 1008.5 0.2
01 24.04 0 н/о н/о +12.7 +11.1 90 1009.5 1008.5
02 24.04 0 н/о н/о +12.8 +11.2 90 1010.0 1009.0
03 24.04 0 н/о н/о +12.8 +11.2 90 1010.6 1009.6
04 24.04 0 н/о н/о +12.9 +11.3 90 1010.9 1009.9
05 24.04 0 н/о н/о +12.6 +11.0 90 1011.7 1010.7
06 24.04 0 н/о н/о +13.6 +12.0 90 1012.4 1011.4 +12.4 0.4
07 24.04 0 н/о н/о +15.3 +13.6 90 1013.0 1012.0

 

Местоположение метеостанции Феррара (Италия): широта 44.83 долгота 11.62 высота над уровнем моря 9 м.

В архиве по умолчанию представлена погода в Ферраре за последнюю неделю. Архивные данные за месяц целиком и за предыдущие месяцы, начиная с января 2011 года, Вы можете получить, выбрав интересующий диапазон дат из раскрывающегося списка и нажав кнопку "Ввод!".


*Определитесь, кто Вы:
робот инопланетянин человек

Внимание! Время в таблицах - всемирное. Для получения местного времени необходимо прибавить поправку, которая равна 1 ч.

Смотрите также архив погоды в соседних городах и на ближайших метеорологических станциях:

Погода в Болонье (Италия) (42 км)
Погода в Болонье (Италия) (43 км)
Погода в Пунта Марина (Италия) (68 км)
Погода в Червии (Италия) (87 км)
Погода в Венеция аэропорту (Италия) (89 км)
Погода в Венеции (Италия) (93 км)
Погода на Монте Симон (Италия) (101 км)
Погода в Тревизо (Италия) (101 км)
Погода в Тревизо аэропорту (Италия) (102 км)
Погода в Римини (Италия) (119 км)

Пояснения к столбцам:

Ветер - указаны скорость ветра в м/с - средняя за 10 мин, порывы в срок и между сроками (в фигурных скобках) и направление, откуда дует ветер: С - северный, СВ - северо-восточный, В - восточный, ЮВ - юго-восточный, Ю - южный, ЮЗ - юго-западный, З - западный, СЗ - северо-западный.
Видимость - горизонтальная дальность видимости в метрах или километрах. При видимости от 1 до 10 км при отсутствии осадков обычно наблюдается дымка, при ухудшении видимости до 1 км и менее - туман. В сухую погоду видимость может ухудшаться дымом, пылью или мглою.
Явления - указаны атмосферные явления, наблюдавшиеся в срок или в последний час перед сроком; фигурными скобками обозначены явления, наблюдавшиеся между сроками (за 1-3 часа до срока); квадратными скобками обозначены град или гололедные отложения с указанием их диаметра в мм.
Облачность - указаны через наклонную черту общая и нижняя облачность в баллах и высота нижней границы облаков в метрах; квадратными скобками обозначены формы облаков: Ci - перистые, Cs - перисто-слоистые, Cc - перисто-кучевые, Ac - высококучевые, As - высокослоистые, Sc - слоисто-кучевые, Ns - слоисто-дождевые, Cu - кучевые, Cb - кучево-дождевые. Подробнее классификацию облаков см. в Атласе облаков (PDF).
T - Температура воздуха - температура, измеренная на высоте 2 м над землей.
Td - Температура точки росы - температура, при понижении до которой содержащийся в воздухе водяной пар достигнет насыщения.
f - Относительная влажность воздуха - влажноcть воздуха, измеренная на высоте 2 м над землей.
Te - Эффективная температура - температура, которую ощущает одетый по сезону человек в тени. Характеристика душности погоды. При расчете учитывается влияние влажности воздуха и скорости ветра на теплоощущения человека.
Tes - Эффективная температура на солнце - температура, которую ощущает человек, с поправкой на солнечный нагрев. Характеристика знойности погоды. Зависит от высоты солнца над горизонтом, облачности и скорости ветра. Ночью, в пасмурную погоду, а также при ветре 12 м/с и более поправка равна нулю.
P - Атмосферное давление - приведенное к уровню моря атмосферное давление.
Po - Атмосферное давление - измеренное на уровне метеостанции атмосферное давление.
Tmin - Минимальная температура - минимум температуры воздуха на высоте 2 м над землей.
Tmax - Максимальная температура - максимум температуры воздуха на высоте 2 м над землей.
R - Количество осадков - Количество выпавших осадков за период времени, мм. При наведении курсора мыши на число - период времени, за который выпало указанное количество осадков.
R24 - Количество осадков - Количество выпавших осадков за 24 часа, мм.
S - Снежный покров - Высота снежного покрова, см. При наведении курсора мыши на число - состояние снежного покрова и степень покрытия местности в баллах.